Погода в Буденновске

Хотите узнать прогноз погоды в Буденновске? Тогда Вам сюда: Погода в Буденновске

Поиск расширенной информации на нашем сайте:

Полезная информация:

Новости сайта



02.01.2020
Опубликован Долгосрочный прогноз погоды по городам России и ближнего зарубежья на январь 2020 года.
Карты: Прогноз на январь и февраль 2020 года, Сравнение прогнозируемой аномалии приземной температуры воздуха на январь 2020 года по разным моделям.




Погода в Буденновске - сегодня

Время (UTC), дата Ветер
(°,м/с) 
Видим.   Явления Облачность Т
(°С)
Тd
(°С)
f(%) Тe
(°С)
Pmin
(гПа)
dP
(гПа)
Po
(мм)
O2
(г/м3)
Тmin Tmax R s Состояние
почвы
12 09.08.20 080 (В) 3{10}  10 км    3/3 1000 м 
[Cu hum]
+32.5 +6.2 19 +33  1006.5  0.1  744  267           
15 09.08.20 050 (СВ) 10 км    3/3 1000 м средняя 
[Cu hum|Ac trans]
+30.9 +6.1 21 +31  1006.7  0.2  744  268    +32.8       
18 09.08.20 060 (СВ) 20000 м    3/0 средняя 
[Ac lent]
+26.8 +4 23 +27  1008.7  1.7  745  273           
21 09.08.20 060 (СВ) 20000 м    3/0 средняя 
[Ac trans]
+23.4 +3.8 28 +23  1009.2  0.4  745  276           
00 10.08.20 060 (СВ) 20000 м    ясно 
+20.1 +6.7 42 +20  1009.3  745  279           
03 10.08.20 050 (СВ) 10 км    ясно 
+20.1 +12.6 62 +25  1010  0.7  746  277  +17.6        сухая 
06 10.08.20 100 (В) 10 км    ясно 
+28.4 +7.3 26 +28  1010.1  0.4  746  271           
09 10.08.20 070 (В) 10 км    ясно 
+30.7 +5.9 21 +31  1009.5  -0.4  746  269           
12 10.08.20 120 (ЮВ) 10 км    3/1 1000 м верхняя 
[Cu hum|Ci fib]
+32 +5.3 19 +32  1008.4  -1  745  268           
15 10.08.20 090 (В) 10 км    8/3 600 м верхняя 
[Cu hum|Ci]
+30.6 +6 21 +31  1008.7  0.2  745  269    +32.1       
18 10.08.20 080 (В) 20000 м    9/9 600 м 
[Sc]
+27 +5.6 26 +27  1009.5  0.6  746  273           
21 10.08.20 120 (ЮВ) 20000 м    3/0 верхняя 
[Ci fib]
+23.2 +9 40 +23  1009.6  0.1  746  275           
00 11.08.20 тихо ()   20000 м    6/0 верхняя 
[Ci fib]
+21 +11.1 53 +24  1010.1  0.4  746  277           
03 11.08.20 060 (СВ) 10 км    9/6 600 м средняя, верхняя 
[Sc|Ac trans|Ci fib]
+21.4 +12 55 +25  1010.4  0.3  746  277  +20.7        сухая 
06 11.08.20 120 (ЮВ) 10 км    9/1 600 м средняя, верхняя 
[Cu hum|Ac trans|Ci fib]
+27 +11.7 39 +31  1010.1  746  271           
09 11.08.20 090 (В) 10 км    9/0 средняя, верхняя 
[Ac trans|Ci fib]
+29.8 +5.8 22 +30  1009.7  -0.3  746  270           
12 11.08.20 130 (ЮВ) 10 км    9/4 600 м верхняя 
[Cu hum|Ci fib]
+31.4 +6 20 +31  1009.3  -0.3  746  269           
15 11.08.20 130 (ЮВ) 10 км    9/1 600 м верхняя 
[Sc|Ci fib]
+29.2 +6.3 24 +29  1009.6  0.1  746  270    +32.1       
18 11.08.20 170 (Ю) 20000 м    3/0 верхняя 
[Ci fib]
+24.3 +6.4 32 +24  1010.8  0.9  746  275           
21 11.08.20 180 (Ю) 20000 м    3/0 верхняя 
[Ci fib]
+20.2 +9.3 49 +21  1010.8  -0.2  746  278           
00 12.08.20 240 (ЮЗ) 20000 м    ясно 
+17.9 +10.2 61 +21  1010.7  -0.2  746  280           
03 12.08.20 тихо ()   10 км    6/3 600 м верхняя 
[Sc|Ci fib]
+17 +10.5 66 +19  1010.8  746  281  +15.8        сухая 
06 12.08.20 200 (Ю) 10 км    8/5 600 м средняя 
[Sc|Ac trans]
+26.6 +10.2 36 +28  1010.4  0.2  746  272           
09 12.08.20 230 (ЮЗ) 10 км    4/3 1000 м верхняя 
[Cu med, cong|Cc]
+32.3 +7.4 21 +32  1009.4  -0.7  746  268           
12 12.08.20 200 (Ю) 10 км  осадки на расстоянии  8/6 600 м кучево-дожд., средняя 
[Cb calv|Ac trans]
+33.8 +4.7 16 +34  1007.9  -1.4  745  266           
Время (UTC), дата Ветер
(°,м/с) 
Видим.   Явления Облачность Т
(°С)
Тd
(°С)
f(%) Тe
(°С)
Pmin
(гПа)
dP
(гПа)
Po
(мм)
O2
(г/м3)
Тmin Tmax R s Состояние
почвы

Для получения пояснительной информации подведите курсор к названию столбца.

ПОГОДА в Буденновске - архив

Всё, что Вы хотите узнать о погоде в Буденновске - удобно и подробно!

Выберите нужную дату (начиная с 1 января 2019* года) и нажмите кнопку "Найти".
Будут отображены архивные сводки погоды по пункту Буденновск, начиная с указанной даты.


Отображать данные в формате CSV (для использования в таблицах Excel)


Внимание! Наш архив погоды предназначен исключительно для личного некоммерческого использования в познавательных целях. Если Вам необходимы официальные справки о состоянии погоды (для производственных, юридических, коммерческих и т.п. целей), обращайтесь в органы Росгидромета.

*Примечание: данная дата относится к архиву по метеостанциям СССР (Россия, СНГ, Балтия).
Архив по метеостанциям Зарубежной Европы и Азии (кроме Китая) хранится 10 дней, по другим регионам земного шара (Китай, Африка, Америка, Австралия, Океания) - 1 день.

Буденновск - район местоположения метеостанции


Название, широта, долгота, высота метеостанции:
Буденновск (Прикумск) 44.8°ш. 44.1°д. 136 м над ур. моря [Российская Федерация]

Дополнительная информация

В oтличие oт бoльшинства пoгoдных сайтoв мы публикуем пoдрoбную метеoинфoрмацию в детальнoм прoфессиoнальнoм фoрмате.

Характеристики температуры и влажнoсти вoздуха измеряются на высoте 2 м в тени вдали oт зданий и деревьев.
Скoрoсть ветра измеряется на высoте 10 м (на урoвне рoста челoвека скoрoсть ветра ниже в 1.5-2 раза). Если метеoстанция нахoдится в гoрoде или в лесу, тo скoрoсть ветра занижена на 2-4 м/с пo сравнению с oткрытым местoм. Скoрoсть ветра над акватoриями крупных рек и oзёр, а также на вершинах хoлмoв на 2-5 м/с выше, чем в oбычных услoвиях.
Атмoсфернoе давление в разных тoчках местнoсти мoжет значительнo oтличаться oт давления на метеoстанции, в зависимoсти oт услoвий рельефа (при пoдъёме на 10 м давление пoнижается примернo на 1 мм рт.ст.).